Location: El Limón
(10.3059°N, 67.6321°W)
Time: 12:46:12
(UTC+00:00)

Delta 7925 Rocket - Pass Details

Date: 14 April 2024
Orbit: 645 x 1644 km, 26.3° (Epoch: 27 May)

Event Time Altitude Azimuth Distance (km) Brightness Sun altitude
Rises 00:31:50 0° 302° (WNW) 3,248 7.9 -27.3°
Reaches altitude 10° 00:34:07 10° 306° (NW) 2,426 6.9 -27.9°
Maximum altitude 00:39:51 58° 25° (NNE) 1,127 4.2 -29.2°
Enters shadow 00:39:52 58° 27° (NNE) 1,128 4.2 -29.2°
